Location: Unspecified
(0.0000°N, 0.0000°E)
Time: 14:28:08
(UTC+00:00)

Altair - Pass Details

Date: 28 October 2021
Orbit: 1502 x 1682 km, 47.2° (Epoch: 26 November)

Event Time Altitude Azimuth Distance (km) Brightness Sun altitude
Rises 09:28:14 0° 333° (NNW) 4,853 9.8 53.9°
Reaches altitude 10° 09:31:31 10° 338° (NNW) 3,887 9.5 54.7°
Maximum altitude 09:41:02 48° 50° (NE) 2,088 9.2 56.8°
Drops below altitude 10° 09:50:39 10° 122° (ESE) 3,940 10.3 59.0°
Sets 09:53:58 0° 127° (SE) 4,923 10.6 59.7°
